| time (UTC) | temp F | wind direction | speed MPH | gust MPH | rain 1hr in | rain 24hr in | rain mn in | humidity % | barometer mb |
| 20260508141203 | 74 | 85 | 2.0 | 9.0 | 0.00 | 0.00 | 0.00 | 59 | 1011.7 |
| 20260508140804 | 74 | 85 | 0.0 | 8.0 | 0.00 | 0.00 | 0.00 | 56 | 1011.6 |
| 20260508140403 | 73 | 93 | 4.0 | 7.0 | 0.00 | 0.00 | 0.00 | 56 | 1011.7 |
| 20260508140004 | 73 | 86 | 2.0 | 9.0 | 0.00 | 0.00 | 0.00 | 58 | 1011.9 |
| 20260508135603 | 73 | 79 | 4.0 | 9.0 | 0.00 | 0.00 | 0.00 | 60 | 1011.9 |
| 20260508135203 | 74 | 90 | 2.0 | 6.0 | 0.00 | 0.00 | 0.00 | 58 | 1011.6 |
| 20260508134804 | 74 | 85 | 2.0 | 6.0 | 0.00 | 0.00 | 0.00 | 57 | 1011.8 |
| 20260508134615 | 74 | 92 | 2.0 | 6.0 | 0.00 | 0.00 | 0.00 | 58 | 1012.0 |
| 20260508134003 | 75 | 107 | 2.0 | 7.0 | 0.00 | 0.00 | 0.00 | 59 | 1011.9 |
| 20260508133603 | 75 | 101 | 2.0 | 7.0 | 0.00 | 0.00 | 0.00 | 56 | 1012.2 |
| 20260508133203 | 74 | 107 | 2.0 | 9.0 | 0.00 | 0.00 | 0.00 | 61 | 1012.1 |
| 20260508132804 | 73 | 98 | 3.0 | 9.0 | 0.00 | 0.00 | 0.00 | 58 | 1012.1 |
| 20260508132403 | 73 | 100 | 2.0 | 8.0 | 0.00 | 0.00 | 0.00 | 60 | 1012.0 |
| 20260508132004 | 74 | 95 | 2.0 | 8.0 | 0.00 | 0.00 | 0.00 | 60 | 1012.0 |
| 20260508131604 | 74 | 103 | 1.0 | 7.0 | 0.00 | 0.00 | 0.00 | 60 | 1012.0 |
| 20260508131204 | 74 | 97 | 2.0 | 6.0 | 0.00 | 0.00 | 0.00 | 62 | 1012.0 |
| 20260508130804 | 74 | 102 | 2.0 | 8.0 | 0.00 | 0.00 | 0.00 | 62 | 1012.1 |
| 20260508130403 | 74 | 101 | 2.0 | 8.0 | 0.00 | 0.00 | 0.00 | 64 | 1012.2 |
| 20260508130004 | 74 | 103 | 3.0 | 8.0 | 0.00 | 0.00 | 0.00 | 66 | 1012.2 |
| 20260508125603 | 74 | 93 | 2.0 | 6.0 | 0.00 | 0.00 | 0.00 | 64 | 1012.1 |
| 20260508125203 | 74 | 89 | 2.0 | 6.0 | 0.00 | 0.00 | 0.00 | 62 | 1012.1 |
| 20260508124803 | 74 | 90 | 2.0 | 6.0 | 0.00 | 0.00 | 0.00 | 60 | 1012.1 |
| 20260508124404 | 75 | 116 | 1.0 | 4.0 | 0.00 | 0.00 | 0.00 | 57 | 1012.2 |
| 20260508124004 | 75 | 105 | 1.0 | 7.0 | 0.00 | 0.00 | 0.00 | 57 | 1012.2 |
| 20260508123603 | 74 | 94 | 0.0 | 7.0 | 0.00 | 0.00 | 0.00 | 57 | 1012.4 |
| 20260508123203 | 73 | 95 | 3.0 | 7.0 | 0.00 | 0.00 | 0.00 | 58 | 1012.3 |
| 20260508122803 | 74 | 86 | 2.0 | 6.0 | 0.00 | 0.00 | 0.00 | 57 | 1012.2 |
| 20260508122403 | 75 | 86 | 2.0 | 6.0 | 0.00 | 0.00 | 0.00 | 57 | 1012.3 |
| 20260508122004 | 75 | 90 | 2.0 | 4.0 | 0.00 | 0.00 | 0.00 | 54 | 1012.3 |
| 20260508121603 | 75 | 122 | 2.0 | 2.0 | 0.00 | 0.00 | 0.00 | 56 | 1012.5 |
| 20260508121203 | 76 | 121 | 1.0 | 4.0 | 0.00 | 0.00 | 0.00 | 52 | 1012.5 |
| 20260508121015 | 75 | 119 | 1.0 | 4.0 | 0.00 | 0.00 | 0.00 | 55 | 1012.6 |
| 20260508120403 | 74 | 96 | 3.0 | 6.0 | 0.00 | 0.00 | 0.00 | 57 | 1012.5 |
| 20260508120214 | 74 | 95 | 2.0 | 6.0 | 0.00 | 0.00 | 0.00 | 58 | 1012.5 |
| 20260508115603 | 74 | 87 | 2.0 | 6.0 | 0.00 | 0.00 | 0.00 | 59 | 1012.6 |
| 20260508115204 | 74 | 72 | 2.0 | 6.0 | 0.00 | 0.00 | 0.00 | 56 | 1012.4 |
| 20260508115017 | 75 | 53 | 3.0 | 6.0 | 0.00 | 0.00 | 0.00 | 56 | 1012.5 |
| 20260508114404 | 76 | 18 | 0.0 | 4.0 | 0.00 | 0.00 | 0.00 | 52 | 1012.6 |
| 20260508114003 | 77 | 87 | 2.0 | 4.0 | 0.00 | 0.00 | 0.00 | 54 | 1012.4 |
| 20260508113603 | 77 | 275 | 1.0 | 4.0 | 0.00 | 0.00 | 0.00 | 56 | 1012.3 |
| 20260508113204 | 76 | 350 | 1.0 | 4.0 | 0.00 | 0.00 | 0.00 | 54 | 1012.4 |
| 20260508113014 | 75 | 2 | 1.0 | 6.0 | 0.00 | 0.00 | 0.00 | 54 | 1012.5 |
| 20260508112404 | 74 | 2 | 1.0 | 7.0 | 0.00 | 0.00 | 0.00 | 60 | 1012.6 |
| 20260508112003 | 75 | 360 | 2.0 | 7.0 | 0.00 | 0.00 | 0.00 | 55 | 1012.5 |
| 20260508111603 | 77 | 27 | 4.0 | 7.0 | 0.00 | 0.00 | 0.00 | 58 | 1012.5 |
| 20260508111204 | 75 | 32 | 0.0 | 6.0 | 0.00 | 0.00 | 0.00 | 55 | 1012.6 |
| 20260508110804 | 74 | 28 | 1.0 | 6.0 | 0.00 | 0.00 | 0.00 | 61 | 1012.6 |
| 20260508110404 | 75 | 28 | 2.0 | 6.0 | 0.00 | 0.00 | 0.00 | 59 | 1012.6 |
| 20260508110004 | 77 | 60 | 3.0 | 6.0 | 0.00 | 0.00 | 0.00 | 60 | 1012.7 |
| 20260508105604 | 74 | 58 | 1.0 | 6.0 | 0.00 | 0.00 | 0.00 | 62 | 1012.8 |
| 20260508105203 | 75 | 85 | 2.0 | 6.0 | 0.00 | 0.00 | 0.00 | 62 | 1012.9 |
| 20260508104803 | 74 | 93 | 0.0 | 8.0 | 0.00 | 0.00 | 0.00 | 61 | 1012.8 |
| 20260508104404 | 72 | 106 | 2.0 | 8.0 | 0.00 | 0.00 | 0.00 | 69 | 1013.0 |
| 20260508104004 | 73 | 106 | 5.0 | 8.0 | 0.00 | 0.00 | 0.00 | 68 | 1013.0 |
| 20260508103603 | 73 | 107 | 2.0 | 8.0 | 0.00 | 0.00 | 0.00 | 67 | 1013.1 |
| 20260508103203 | 73 | 100 | 1.0 | 7.0 | 0.00 | 0.00 | 0.00 | 65 | 1012.8 |
| 20260508102803 | 73 | 88 | 2.0 | 6.0 | 0.00 | 0.00 | 0.00 | 62 | 1013.0 |
| 20260508102404 | 73 | 99 | 1.0 | 6.0 | 0.00 | 0.00 | 0.00 | 64 | 1012.9 |
| 20260508102004 | 73 | 94 | 3.0 | 8.0 | 0.00 | 0.00 | 0.00 | 65 | 1012.9 |
| 20260508101603 | 72 | 97 | 2.0 | 8.0 | 0.00 | 0.00 | 0.00 | 62 | 1013.2 |
| 20260508101203 | 73 | 86 | 3.0 | 7.0 | 0.00 | 0.00 | 0.00 | 64 | 1013.0 |
| 20260508100803 | 72 | 93 | 1.0 | 7.0 | 0.00 | 0.00 | 0.00 | 63 | 1013.2 |
| 20260508100403 | 72 | 96 | 2.0 | 7.0 | 0.00 | 0.00 | 0.00 | 61 | 1013.1 |
| 20260508095604 | 74 | 69 | 2.0 | 6.0 | 0.00 | 0.00 | 0.00 | 65 | 1016.1 |
| 20260508095204 | 74 | 55 | 3.0 | 7.0 | 0.00 | 0.00 | 0.00 | 63 | 1016.2 |
| 20260508094804 | 73 | 73 | 2.0 | 7.0 | 0.00 | 0.00 | 0.00 | 63 | 1016.2 |
| 20260508094404 | 72 | 108 | 2.0 | 8.0 | 0.00 | 0.00 | 0.00 | 65 | 1016.1 |
| 20260508094004 | 71 | 100 | 2.0 | 8.0 | 0.00 | 0.00 | 0.00 | 62 | 1016.1 |
| 20260508093603 | 70 | 97 | 2.0 | 8.0 | 0.00 | 0.00 | 0.00 | 67 | 1016.2 |
| 20260508093414 | 69 | 85 | 1.0 | 7.0 | 0.00 | 0.00 | 0.00 | 71 | 1016.3 |
| 20260508092803 | 72 | 83 | 2.0 | 6.0 | 0.00 | 0.00 | 0.00 | 66 | 1016.4 |
| 20260508092403 | 74 | 17 | 2.0 | 4.0 | 0.00 | 0.00 | 0.00 | 64 | 1016.2 |
| 20260508092003 | 71 | 347 | 2.0 | 4.0 | 0.00 | 0.00 | 0.00 | 71 | 1016.3 |
| 20260508091817 | 71 | 342 | 2.0 | 4.0 | 0.00 | 0.00 | 0.00 | 67 | 1016.2 |
| 20260508091204 | 72 | 347 | 2.0 | 4.0 | 0.00 | 0.00 | 0.00 | 66 | 1016.2 |
| 20260508091016 | 72 | 357 | 2.0 | 4.0 | 0.00 | 0.00 | 0.00 | 68 | 1016.2 |
| 20260508090403 | 72 | 13 | 1.0 | 4.0 | 0.00 | 0.00 | 0.00 | 68 | 1016.2 |
| 20260508090004 | 71 | 14 | 2.0 | 6.0 | 0.00 | 0.00 | 0.00 | 71 | 1016.3 |
| 20260508085603 | 70 | 7 | 2.0 | 6.0 | 0.00 | 0.00 | 0.00 | 72 | 1016.3 |
| 20260508085418 | 69 | 6 | 2.0 | 6.0 | 0.00 | 0.00 | 0.00 | 72 | 1016.4 |
| 20260508084804 | 70 | 346 | 1.0 | 6.0 | 0.00 | 0.00 | 0.00 | 73 | 1016.2 |
| 20260508084404 | 69 | 347 | 2.0 | 6.0 | 0.00 | 0.00 | 0.00 | 74 | 1016.1 |
| 20260508084216 | 69 | 346 | 1.0 | 6.0 | 0.00 | 0.00 | 0.00 | 74 | 1016.0 |
| 20260508083603 | 69 | 350 | 1.0 | 6.0 | 0.00 | 0.00 | 0.00 | 75 | 1016.4 |
| 20260508083204 | 69 | 356 | 2.0 | 6.0 | 0.00 | 0.00 | 0.00 | 74 | 1016.1 |
| 20260508082804 | 69 | 13 | 3.0 | 6.0 | 0.00 | 0.00 | 0.00 | 76 | 1016.1 |
| 20260508082404 | 67 | 34 | 1.0 | 6.0 | 0.00 | 0.00 | 0.00 | 76 | 1016.1 |
| 20260508082003 | 67 | 34 | 1.0 | 6.0 | 0.00 | 0.00 | 0.00 | 78 | 1016.5 |
| 20260508081603 | 68 | 57 | 3.0 | 6.0 | 0.00 | 0.00 | 0.00 | 77 | 1016.2 |
| 20260508081417 | 68 | 46 | 2.0 | 4.0 | 0.00 | 0.00 | 0.00 | 77 | 1016.4 |
| 20260508080803 | 67 | 64 | 2.0 | 7.0 | 0.00 | 0.00 | 0.00 | 79 | 1016.1 |
| 20260508080403 | 66 | 76 | 2.0 | 7.0 | 0.00 | 0.00 | 0.00 | 81 | 1016.1 |
| 20260508080004 | 67 | 77 | 2.0 | 6.0 | 0.00 | 0.00 | 0.00 | 80 | 1016.0 |
| 20260508075603 | 67 | 75 | 2.0 | 8.0 | 0.00 | 0.00 | 0.00 | 80 | 1015.9 |
| 20260508075204 | 67 | 76 | 3.0 | 8.0 | 0.00 | 0.00 | 0.00 | 79 | 1016.0 |
| 20260508074803 | 66 | 79 | 5.0 | 8.0 | 0.00 | 0.00 | 0.00 | 80 | 1016.0 |
| 20260508074617 | 66 | 73 | 5.0 | 8.0 | 0.00 | 0.00 | 0.00 | 79 | 1016.1 |
| 20260508074004 | 67 | 33 | 2.0 | 7.0 | 0.00 | 0.00 | 0.00 | 80 | 1016.0 |
| 20260508073604 | 67 | 22 | 0.0 | 4.0 | 0.00 | 0.00 | 0.00 | 80 | 1015.8 |
| 20260508073204 | 66 | 18 | 0.0 | 4.0 | 0.00 | 0.00 | 0.00 | 82 | 1016.2 |
| 20260508072804 | 65 | 22 | 0.0 | 4.0 | 0.00 | 0.00 | 0.00 | 82 | 1016.0 |
| 20260508072403 | 65 | 20 | 2.0 | 4.0 | 0.00 | 0.00 | 0.00 | 84 | 1016.0 |
| 20260508072004 | 65 | 21 | 2.0 | 6.0 | 0.00 | 0.00 | 0.00 | 83 | 1016.0 |
| 20260508071603 | 65 | 46 | 1.0 | 6.0 | 0.00 | 0.00 | 0.00 | 85 | 1016.0 |
| 20260508071203 | 65 | 36 | 3.0 | 6.0 | 0.00 | 0.00 | 0.00 | 86 | 1016.0 |
| 20260508071017 | 65 | 39 | 1.0 | 6.0 | 0.00 | 0.00 | 0.00 | 86 | 1015.9 |
| 20260508070403 | 64 | 51 | 2.0 | 6.0 | 0.00 | 0.00 | 0.00 | 86 | 1016.0 |
| 20260508070004 | 64 | 71 | 1.0 | 6.0 | 0.00 | 0.00 | 0.00 | 86 | 1016.1 |
| 20260508065603 | 64 | 71 | 4.0 | 6.0 | 0.00 | 0.00 | 0.00 | 87 | 1015.9 |
| 20260508065204 | 64 | 49 | 2.0 | 6.0 | 0.00 | 0.00 | 0.00 | 88 | 1016.0 |
| 20260508064803 | 64 | 32 | 2.0 | 6.0 | 0.00 | 0.00 | 0.00 | 87 | 1016.1 |
| 20260508064403 | 63 | 27 | 3.0 | 6.0 | 0.00 | 0.00 | 0.00 | 88 | 1016.1 |
| 20260508064004 | 63 | 21 | 2.0 | 4.0 | 0.00 | 0.00 | 0.00 | 89 | 1016.1 |
| 20260508063603 | 62 | 20 | 2.0 | 6.0 | 0.00 | 0.00 | 0.00 | 89 | 1015.9 |
| 20260508063204 | 62 | 22 | 0.0 | 6.0 | 0.00 | 0.00 | 0.00 | 89 | 1015.8 |
| 20260508062804 | 62 | 25 | 2.0 | 6.0 | 0.00 | 0.00 | 0.00 | 89 | 1016.1 |
| 20260508062615 | 62 | 23 | 1.0 | 6.0 | 0.00 | 0.00 | 0.00 | 89 | 1015.9 |
| 20260508062003 | 62 | 47 | 1.0 | 2.0 | 0.00 | 0.00 | 0.00 | 89 | 1015.9 |
| 20260508061814 | 62 | 49 | 1.0 | 2.0 | 0.00 | 0.00 | 0.00 | 90 | 1015.8 |
| 20260508061418 | 61 | 30 | 1.0 | 4.0 | 0.00 | 0.00 | 0.00 | 91 | 1015.8 |
| 20260508060804 | 60 | 11 | 0.0 | 4.0 | 0.00 | 0.00 | 0.00 | 91 | 1015.7 |
| 20260508060404 | 60 | 19 | 2.0 | 4.0 | 0.00 | 0.00 | 0.00 | 91 | 1015.5 |
| 20260508060004 | 60 | 25 | 1.0 | 4.0 | 0.00 | 0.00 | 0.00 | 91 | 1015.5 |
| 20260508055603 | 60 | 22 | 0.0 | 4.0 | 0.00 | 0.00 | 0.00 | 91 | 1015.5 |
| 20260508055204 | 59 | 8 | 1.0 | 4.0 | 0.00 | 0.00 | 0.00 | 91 | 1015.5 |
| 20260508055014 | 59 | 353 | 1.0 | 2.0 | 0.00 | 0.00 | 0.00 | 91 | 1015.6 |
| 20260508054403 | 59 | 336 | 0.0 | 2.0 | 0.00 | 0.00 | 0.00 | 91 | 1015.6 |
| 20260508054003 | 59 | 356 | 1.0 | 4.0 | 0.00 | 0.00 | 0.00 | 91 | 1015.7 |
| 20260508053603 | 59 | 6 | 0.0 | 4.0 | 0.00 | 0.00 | 0.00 | 92 | 1015.6 |
| 20260508053417 | 59 | 11 | 0.0 | 4.0 | 0.00 | 0.00 | 0.00 | 92 | 1015.5 |
| 20260508052804 | 58 | 351 | 0.0 | 4.0 | 0.00 | 0.00 | 0.00 | 92 | 1015.6 |
| 20260508052404 | 58 | 337 | 0.0 | 4.0 | 0.00 | 0.00 | 0.00 | 92 | 1015.3 |
| 20260508052004 | 58 | 340 | 0.0 | 4.0 | 0.00 | 0.00 | 0.00 | 93 | 1015.5 |
| 20260508051604 | 57 | 356 | 0.0 | 4.0 | 0.00 | 0.00 | 0.00 | 93 | 1015.3 |
| 20260508051203 | 57 | 355 | 2.0 | 4.0 | 0.00 | 0.00 | 0.00 | 93 | 1015.6 |
| 20260508050803 | 57 | 2 | 2.0 | 4.0 | 0.00 | 0.00 | 0.00 | 93 | 1015.6 |
| 20260508050403 | 57 | 355 | 2.0 | 4.0 | 0.00 | 0.00 | 0.00 | 94 | 1015.3 |
| 20260508050217 | 56 | 354 | 2.0 | 4.0 | 0.00 | 0.00 | 0.00 | 94 | 1015.4 |
| 20260508045604 | 56 | 355 | 1.0 | 2.0 | 0.00 | 0.00 | 0.00 | 94 | 1015.4 |
| 20260508045203 | 56 | 354 | 0.0 | 2.0 | 0.00 | 0.00 | 0.00 | 94 | 1015.4 |
| 20260508044803 | 56 | 339 | 0.0 | 2.0 | 0.00 | 0.00 | 0.00 | 94 | 1015.2 |
| 20260508044403 | 56 | 335 | 0.0 | 4.0 | 0.00 | 0.00 | 0.00 | 94 | 1015.2 |
| 20260508044003 | 56 | 337 | 1.0 | 4.0 | 0.00 | 0.00 | 0.00 | 94 | 1015.1 |
| 20260508043603 | 56 | 340 | 1.0 | 4.0 | 0.00 | 0.00 | 0.00 | 94 | 1015.3 |
| 20260508043203 | 55 | 339 | 0.0 | 2.0 | 0.00 | 0.00 | 0.00 | 95 | 1015.3 |
| 20260508042803 | 55 | 327 | 0.0 | 2.0 | 0.00 | 0.00 | 0.00 | 95 | 1015.1 |
| 20260508042403 | 55 | 341 | 0.0 | 2.0 | 0.00 | 0.00 | 0.00 | 95 | 1015.1 |
| 20260508042004 | 55 | 351 | 0.0 | 2.0 | 0.00 | 0.00 | 0.00 | 95 | 1015.1 |
| 20260508041605 | 55 | 360 | 1.0 | 2.0 | 0.00 | 0.00 | 0.00 | 95 | 1015.0 |
| 20260508041204 | 55 | 8 | 0.0 | 2.0 | 0.00 | 0.00 | 0.00 | 94 | 1014.9 |
| 20260508040803 | 55 | 3 | 0.0 | 4.0 | 0.00 | 0.00 | 0.00 | 94 | 1015.0 |
| 20260508040403 | 55 | 353 | 1.0 | 4.0 | 0.00 | 0.00 | 0.00 | 94 | 1014.9 |
| 20260508040004 | 55 | 350 | 2.0 | 4.0 | 0.00 | 0.00 | 0.00 | 94 | 1014.9 |
| 20260508035603 | 55 | 353 | 0.0 | 4.0 | 0.00 | 0.00 | 0.00 | 94 | 1014.9 |
| 20260508035203 | 55 | 355 | 2.0 | 4.0 | 0.00 | 0.00 | 0.00 | 94 | 1014.9 |
| 20260508034804 | 54 | 351 | 2.0 | 4.0 | 0.00 | 0.00 | 0.00 | 94 | 1015.0 |
| 20260508034615 | 54 | 338 | 1.0 | 4.0 | 0.00 | 0.00 | 0.00 | 94 | 1014.8 |
| 20260508034003 | 55 | 328 | 1.0 | 4.0 | 0.00 | 0.00 | 0.00 | 94 | 1015.0 |
| 20260508033603 | 55 | 342 | 2.0 | 4.0 | 0.00 | 0.00 | 0.00 | 94 | 1014.8 |
| 20260508033203 | 55 | 351 | 1.0 | 4.0 | 0.00 | 0.00 | 0.00 | 94 | 1014.8 |
| 20260508032804 | 55 | 352 | 2.0 | 4.0 | 0.00 | 0.00 | 0.00 | 95 | 1014.9 |
| 20260508032403 | 55 | 342 | 0.0 | 4.0 | 0.00 | 0.00 | 0.00 | 95 | 1015.1 |
| 20260508032004 | 55 | 329 | 1.0 | 4.0 | 0.00 | 0.00 | 0.00 | 95 | 1015.0 |
| 20260508031815 | 55 | 332 | 2.0 | 4.0 | 0.00 | 0.00 | 0.00 | 95 | 1015.0 |
| 20260508031204 | 55 | 337 | 1.0 | 4.0 | 0.00 | 0.00 | 0.00 | 95 | 1015.0 |
| 20260508030803 | 55 | 349 | 2.0 | 4.0 | 0.00 | 0.00 | 0.00 | 95 | 1015.0 |
| 20260508030404 | 55 | 360 | 1.0 | 4.0 | 0.00 | 0.00 | 0.00 | 95 | 1014.8 |
| 20260508030218 | 55 | 354 | 1.0 | 4.0 | 0.00 | 0.00 | 0.00 | 95 | 1014.8 |
| 20260508025603 | 55 | 339 | 1.0 | 4.0 | 0.00 | 0.00 | 0.00 | 95 | 1015.0 |
| 20260508025203 | 56 | 325 | 1.0 | 4.0 | 0.00 | 0.00 | 0.00 | 95 | 1014.9 |
| 20260508024803 | 56 | 323 | 0.0 | 4.0 | 0.00 | 0.00 | 0.00 | 95 | 1015.1 |
| 20260508024403 | 56 | 332 | 2.0 | 4.0 | 0.00 | 0.00 | 0.00 | 95 | 1014.8 |
| 20260508024003 | 56 | 332 | 1.0 | 4.0 | 0.00 | 0.00 | 0.00 | 96 | 1014.9 |
| 20260508023603 | 56 | 336 | 2.0 | 4.0 | 0.00 | 0.00 | 0.00 | 96 | 1015.0 |
| 20260508023414 | 56 | 340 | 2.0 | 4.0 | 0.00 | 0.00 | 0.00 | 96 | 1015.1 |
| 20260508022804 | 56 | 2 | 2.0 | 4.0 | 0.00 | 0.00 | 0.00 | 96 | 1015.4 |
| 20260508022403 | 56 | 357 | 1.0 | 4.0 | 0.00 | 0.00 | 0.00 | 96 | 1015.2 |
| 20260508022003 | 56 | 359 | 0.0 | 4.0 | 0.00 | 0.00 | 0.00 | 96 | 1015.1 |
| 20260508021603 | 56 | 349 | 0.0 | 4.0 | 0.00 | 0.00 | 0.00 | 96 | 1015.2 |
| 20260508021204 | 57 | 342 | 3.0 | 6.0 | 0.00 | 0.00 | 0.00 | 96 | 1015.3 |
| 20260508020803 | 57 | 353 | 1.0 | 6.0 | 0.00 | 0.00 | 0.00 | 96 | 1015.0 |
| 20260508020403 | 57 | 5 | 0.0 | 6.0 | 0.00 | 0.00 | 0.00 | 96 | 1015.1 |
| 20260508020004 | 57 | 3 | 1.0 | 4.0 | 0.00 | 0.00 | 0.00 | 96 | 1015.4 |
| 20260508015604 | 57 | 360 | 0.0 | 4.0 | 0.00 | 0.00 | 0.00 | 96 | 1015.2 |
| 20260508015417 | 57 | 356 | 2.0 | 4.0 | 0.00 | 0.00 | 0.00 | 96 | 1015.4 |
| 20260508014803 | 57 | 9 | 0.0 | 4.0 | 0.00 | 0.00 | 0.00 | 96 | 1015.1 |
| 20260508014403 | 57 | 360 | 1.0 | 4.0 | 0.00 | 0.00 | 0.00 | 96 | 1015.1 |
| 20260508014004 | 57 | 351 | 2.0 | 4.0 | 0.00 | 0.00 | 0.00 | 96 | 1015.0 |
| 20260508013604 | 58 | 345 | 2.0 | 4.0 | 0.00 | 0.00 | 0.00 | 96 | 1015.2 |
| 20260508013204 | 58 | 347 | 1.0 | 4.0 | 0.00 | 0.00 | 0.00 | 95 | 1015.2 |
| 20260508013014 | 58 | 349 | 0.0 | 4.0 | 0.00 | 0.00 | 0.00 | 95 | 1015.0 |
| 20260508012613 | 58 | 346 | 1.0 | 4.0 | 0.00 | 0.00 | 0.00 | 95 | 1015.2 |
| 20260508012003 | 58 | 2 | 0.0 | 4.0 | 0.00 | 0.00 | 0.00 | 95 | 1015.4 |
| 20260508011603 | 58 | 4 | 0.0 | 4.0 | 0.00 | 0.00 | 0.00 | 95 | 1015.2 |
| 20260508011203 | 58 | 8 | 0.0 | 4.0 | 0.00 | 0.00 | 0.00 | 94 | 1015.2 |
| 20260508010804 | 58 | 4 | 0.0 | 4.0 | 0.00 | 0.00 | 0.00 | 94 | 1015.3 |
| 20260508010404 | 58 | 3 | 2.0 | 4.0 | 0.00 | 0.00 | 0.00 | 94 | 1015.3 |
| 20260508010004 | 59 | 7 | 1.0 | 4.0 | 0.00 | 0.00 | 0.00 | 94 | 1015.4 |
| 20260508005814 | 59 | 5 | 0.0 | 6.0 | 0.00 | 0.00 | 0.00 | 94 | 1015.2 |
| 20260508005204 | 59 | 21 | 1.0 | 6.0 | 0.00 | 0.00 | 0.00 | 94 | 1015.4 |
| 20260508004803 | 59 | 28 | 1.0 | 4.0 | 0.00 | 0.00 | 0.00 | 94 | 1015.3 |
| 20260508004403 | 59 | 32 | 2.0 | 4.0 | 0.00 | 0.00 | 0.00 | 93 | 1015.3 |
| 20260508004004 | 59 | 32 | 1.0 | 4.0 | 0.00 | 0.00 | 0.00 | 93 | 1015.3 |
| 20260508003603 | 59 | 32 | 1.0 | 4.0 | 0.00 | 0.00 | 0.00 | 93 | 1015.4 |
| 20260508003204 | 59 | 21 | 2.0 | 7.0 | 0.00 | 0.00 | 0.00 | 93 | 1015.4 |
| 20260508002804 | 59 | 20 | 2.0 | 7.0 | 0.00 | 0.00 | 0.00 | 93 | 1015.3 |
| 20260508002404 | 59 | 9 | 4.0 | 7.0 | 0.00 | 0.00 | 0.00 | 93 | 1015.0 |
| 20260508002003 | 59 | 350 | 1.0 | 4.0 | 0.00 | 0.00 | 0.00 | 93 | 1015.1 |
| 20260508001603 | 59 | 350 | 0.0 | 4.0 | 0.00 | 0.00 | 0.00 | 93 | 1015.4 |
| 20260508001204 | 59 | 347 | 2.0 | 4.0 | 0.00 | 0.00 | 0.00 | 93 | 1015.2 |
| 20260508000804 | 59 | 340 | 2.0 | 4.0 | 0.00 | 0.00 | 0.00 | 92 | 1015.2 |
| 20260508000405 | 59 | 350 | 1.0 | 4.0 | 0.00 | 0.00 | 0.00 | 92 | 1015.4 |
| 20260508000004 | 59 | 359 | 1.0 | 6.0 | 0.00 | 0.00 | 0.00 | 92 | 1015.5 |
| 20260507235814 | 59 | 3 | 2.0 | 6.0 | 0.00 | 0.00 | 0.00 | 92 | 1015.1 |
| 20260507235203 | 59 | 1 | 2.0 | 8.0 | 0.00 | 0.00 | 0.00 | 91 | 1015.3 |
| 20260507234804 | 59 | 11 | 2.0 | 8.0 | 0.00 | 0.00 | 0.00 | 91 | 1015.3 |
| 20260507234404 | 59 | 11 | 3.0 | 8.0 | 0.00 | 0.00 | 0.00 | 91 | 1015.2 |
| 20260507234217 | 59 | 14 | 4.0 | 8.0 | 0.00 | 0.00 | 0.00 | 90 | 1015.3 |
| 20260507233604 | 59 | 357 | 2.0 | 8.0 | 0.00 | 0.00 | 0.00 | 90 | 1015.4 |
| 20260507233203 | 59 | 357 | 4.0 | 8.0 | 0.00 | 0.00 | 0.00 | 90 | 1015.6 |
| 20260507232804 | 59 | 350 | 1.0 | 4.0 | 0.00 | 0.00 | 0.00 | 90 | 1015.4 |
| 20260507232614 | 59 | 351 | 2.0 | 4.0 | 0.00 | 0.00 | 0.00 | 90 | 1015.5 |
| 20260507232004 | 59 | 355 | 2.0 | 4.0 | 0.00 | 0.00 | 0.00 | 90 | 1015.5 |
| 20260507231603 | 59 | 349 | 2.0 | 4.0 | 0.00 | 0.00 | 0.00 | 90 | 1015.5 |
| 20260507231203 | 59 | 347 | 2.0 | 4.0 | 0.00 | 0.00 | 0.00 | 90 | 1015.3 |
| 20260507230804 | 59 | 347 | 0.0 | 4.0 | 0.00 | 0.00 | 0.00 | 91 | 1015.6 |
| 20260507230403 | 59 | 350 | 2.0 | 4.0 | 0.00 | 0.00 | 0.00 | 91 | 1015.4 |
| 20260507230004 | 59 | 354 | 2.0 | 4.0 | 0.00 | 0.00 | 0.00 | 91 | 1015.1 |
| 20260507225603 | 59 | 2 | 2.0 | 4.0 | 0.00 | 0.00 | 0.00 | 91 | 1015.1 |
| 20260507225414 | 59 | 3 | 1.0 | 4.0 | 0.00 | 0.00 | 0.00 | 91 | 1015.1 |
| 20260507224803 | 59 | 3 | 2.0 | 4.0 | 0.00 | 0.00 | 0.00 | 91 | 1015.2 |
| 20260507224403 | 59 | 357 | 0.0 | 4.0 | 0.00 | 0.00 | 0.00 | 91 | 1015.3 |
| 20260507224004 | 59 | 357 | 0.0 | 4.0 | 0.00 | 0.00 | 0.00 | 91 | 1015.4 |
| 20260507223604 | 59 | 360 | 1.0 | 4.0 | 0.00 | 0.00 | 0.00 | 91 | 1015.5 |
| 20260507223204 | 59 | 11 | 0.0 | 4.0 | 0.00 | 0.00 | 0.00 | 91 | 1015.4 |
| 20260507222804 | 59 | 2 | 1.0 | 4.0 | 0.00 | 0.00 | 0.00 | 91 | 1015.5 |
| 20260507222403 | 59 | 357 | 2.0 | 4.0 | 0.00 | 0.00 | 0.00 | 91 | 1015.5 |
| 20260507222004 | 59 | 14 | 0.0 | 4.0 | 0.00 | 0.00 | 0.00 | 90 | 1015.2 |
| 20260507221814 | 59 | 15 | 1.0 | 4.0 | 0.00 | 0.00 | 0.00 | 90 | 1015.3 |
| 20260507221204 | 59 | 2 | 2.0 | 4.0 | 0.00 | 0.00 | 0.00 | 90 | 1015.2 |
| 20260507220804 | 59 | 356 | 2.0 | 4.0 | 0.00 | 0.00 | 0.00 | 90 | 1015.1 |
| 20260507220403 | 59 | 6 | 0.0 | 4.0 | 0.00 | 0.00 | 0.00 | 89 | 1015.1 |
| 20260507220007 | 60 | 14 | 0.0 | 4.0 | 0.00 | 0.00 | 0.00 | 89 | 1015.4 |
| 20260507215603 | 60 | 12 | 1.0 | 4.0 | 0.00 | 0.00 | 0.00 | 89 | 1015.1 |
| 20260507215204 | 60 | 9 | 2.0 | 4.0 | 0.00 | 0.00 | 0.00 | 89 | 1015.1 |
| 20260507214803 | 60 | 5 | 1.0 | 2.0 | 0.00 | 0.00 | 0.00 | 88 | 1015.4 |
| 20260507214614 | 60 | 7 | 0.0 | 2.0 | 0.00 | 0.00 | 0.00 | 88 | 1015.4 |
| 20260507214003 | 60 | 4 | 1.0 | 4.0 | 0.00 | 0.00 | 0.00 | 88 | 1015.0 |
| 20260507213812 | 60 | 2 | 1.0 | 4.0 | 0.00 | 0.00 | 0.00 | 87 | 1015.1 |
| 20260507213204 | 60 | 15 | 2.0 | 4.0 | 0.00 | 0.00 | 0.00 | 87 | 1014.8 |
| 20260507212804 | 60 | 22 | 2.0 | 4.0 | 0.00 | 0.00 | 0.00 | 86 | 1015.2 |
| 20260507212404 | 60 | 13 | 1.0 | 4.0 | 0.00 | 0.00 | 0.00 | 86 | 1015.1 |
| 20260507212004 | 60 | 3 | 2.0 | 4.0 | 0.00 | 0.00 | 0.00 | 86 | 1014.9 |
| 20260507211604 | 60 | 360 | 1.0 | 4.0 | 0.00 | 0.00 | 0.00 | 85 | 1015.0 |
| 20260507211414 | 61 | 359 | 0.0 | 4.0 | 0.00 | 0.00 | 0.00 | 85 | 1015.0 |
| 20260507210804 | 61 | 347 | 1.0 | 4.0 | 0.00 | 0.00 | 0.00 | 84 | 1015.1 |
| 20260507210618 | 61 | 339 | 1.0 | 4.0 | 0.00 | 0.00 | 0.00 | 84 | 1015.1 |
| 20260507210005 | 61 | 331 | 0.0 | 4.0 | 0.00 | 0.00 | 0.00 | 85 | 1015.2 |
| 20260507205603 | 60 | 328 | 1.0 | 4.0 | 0.00 | 0.00 | 0.00 | 85 | 1015.0 |
| 20260507205204 | 61 | 309 | 0.0 | 4.0 | 0.00 | 0.00 | 0.00 | 85 | 1015.1 |
| 20260507204804 | 61 | 329 | 0.0 | 4.0 | 0.00 | 0.00 | 0.00 | 84 | 1015.1 |
| 20260507204614 | 61 | 334 | 0.0 | 4.0 | 0.00 | 0.00 | 0.00 | 83 | 1015.1 |
| 20260507204003 | 61 | 355 | 2.0 | 4.0 | 0.00 | 0.00 | 0.00 | 83 | 1015.0 |
| 20260507203813 | 61 | 357 | 1.0 | 4.0 | 0.00 | 0.00 | 0.00 | 83 | 1014.9 |
| 20260507203203 | 61 | 89 | 0.0 | 2.0 | 0.00 | 0.00 | 0.00 | 83 | 1014.9 |
| 20260507202804 | 61 | 90 | 0.0 | 2.0 | 0.00 | 0.00 | 0.00 | 82 | 1014.7 |
| 20260507202616 | 61 | 90 | 0.0 | 2.0 | 0.00 | 0.00 | 0.00 | 82 | 1015.0 |
| 20260507202004 | 60 | 0 | 0.0 | 0.0 | 0.00 | 0.00 | 0.00 | 83 | 1014.7 |
| 20260507201603 | 61 | 90 | 0.0 | 2.0 | 0.00 | 0.00 | 0.00 | 83 | 1014.7 |
| 20260507201204 | 61 | 90 | 0.0 | 2.0 | 0.00 | 0.00 | 0.00 | 83 | 1014.6 |
| 20260507201014 | 61 | 90 | 0.0 | 4.0 | 0.00 | 0.00 | 0.00 | 82 | 1014.4 |
| 20260507200613 | 62 | 93 | 0.0 | 4.0 | 0.00 | 0.00 | 0.00 | 81 | 1014.4 |
| 20260507200004 | 62 | 91 | 2.0 | 4.0 | 0.00 | 0.00 | 0.00 | 80 | 1014.4 |
| 20260507195604 | 62 | 87 | 1.0 | 7.0 | 0.00 | 0.00 | 0.00 | 80 | 1014.5 |
| 20260507195416 | 62 | 86 | 1.0 | 7.0 | 0.00 | 0.00 | 0.00 | 80 | 1014.4 |
| 20260507195015 | 62 | 79 | 0.0 | 7.0 | 0.00 | 0.00 | 0.00 | 79 | 1014.5 |
| 20260507194404 | 62 | 82 | 4.0 | 7.0 | 0.00 | 0.00 | 0.00 | 79 | 1014.5 |
| 20260507194004 | 62 | 92 | 1.0 | 4.0 | 0.00 | 0.00 | 0.00 | 79 | 1014.3 |
| 20260507193814 | 62 | 95 | 2.0 | 6.0 | 0.00 | 0.00 | 0.00 | 79 | 1014.3 |
| 20260507193203 | 63 | 94 | 2.0 | 6.0 | 0.00 | 0.00 | 0.00 | 79 | 1014.1 |
| 20260507192803 | 63 | 94 | 2.0 | 6.0 | 0.00 | 0.00 | 0.00 | 78 | 1014.2 |
| 20260507192404 | 63 | 94 | 2.0 | 7.0 | 0.00 | 0.00 | 0.00 | 79 | 1014.2 |
| 20260507192216 | 63 | 91 | 1.0 | 7.0 | 0.00 | 0.00 | 0.00 | 79 | 1014.3 |
| 20260507191604 | 64 | 85 | 3.0 | 7.0 | 0.00 | 0.00 | 0.00 | 76 | 1014.2 |
| 20260507191204 | 64 | 91 | 3.0 | 6.0 | 0.00 | 0.00 | 0.00 | 76 | 1013.8 |
| 20260507190803 | 64 | 88 | 2.0 | 6.0 | 0.00 | 0.00 | 0.00 | 76 | 1013.9 |
| 20260507190404 | 64 | 83 | 2.0 | 6.0 | 0.00 | 0.00 | 0.00 | 77 | 1013.7 |
| 20260507190005 | 64 | 78 | 2.0 | 6.0 | 0.00 | 0.00 | 0.00 | 78 | 1013.7 |
| 20260507185603 | 65 | 80 | 4.0 | 6.0 | 0.00 | 0.00 | 0.00 | 77 | 1013.5 |
| 20260507185203 | 65 | 83 | 2.0 | 4.0 | 0.00 | 0.00 | 0.00 | 78 | 1013.4 |
| 20260507184803 | 65 | 87 | 4.0 | 4.0 | 0.00 | 0.00 | 0.00 | 78 | 1013.7 |
| 20260507184403 | 65 | 90 | 1.0 | 4.0 | 0.00 | 0.00 | 0.00 | 78 | 1013.4 |
| 20260507184004 | 65 | 84 | 2.0 | 7.0 | 0.00 | 0.00 | 0.00 | 77 | 1013.4 |
| 20260507183604 | 66 | 85 | 1.0 | 7.0 | 0.00 | 0.00 | 0.00 | 76 | 1013.3 |
| 20260507183204 | 66 | 84 | 3.0 | 7.0 | 0.00 | 0.00 | 0.00 | 75 | 1013.3 |
| 20260507182803 | 66 | 84 | 1.0 | 4.0 | 0.00 | 0.00 | 0.00 | 74 | 1013.1 |
| 20260507182403 | 66 | 85 | 2.0 | 4.0 | 0.00 | 0.00 | 0.00 | 72 | 1013.1 |
| 20260507182003 | 66 | 86 | 1.0 | 4.0 | 0.00 | 0.00 | 0.00 | 73 | 1013.0 |
| 20260507181603 | 67 | 89 | 1.0 | 4.0 | 0.00 | 0.00 | 0.00 | 73 | 1013.1 |
| 20260507181203 | 67 | 90 | 0.0 | 7.0 | 0.00 | 0.00 | 0.00 | 73 | 1013.1 |
| 20260507180804 | 67 | 89 | 2.0 | 7.0 | 0.00 | 0.00 | 0.00 | 74 | 1013.0 |
| 20260507180614 | 67 | 87 | 2.0 | 7.0 | 0.00 | 0.00 | 0.00 | 74 | 1012.8 |
| 20260507180004 | 67 | 75 | 2.0 | 4.0 | 0.00 | 0.00 | 0.00 | 77 | 1012.6 |
| 20260507175603 | 68 | 72 | 2.0 | 4.0 | 0.00 | 0.00 | 0.00 | 76 | 1012.9 |
| 20260507175417 | 68 | 77 | 1.0 | 4.0 | 0.00 | 0.00 | 0.00 | 76 | 1012.6 |
| 20260507174803 | 68 | 63 | 2.0 | 6.0 | 0.00 | 0.00 | 0.00 | 75 | 1012.6 |
| 20260507174403 | 68 | 49 | 2.0 | 6.0 | 0.00 | 0.00 | 0.00 | 74 | 1012.6 |
| 20260507174004 | 68 | 41 | 0.0 | 6.0 | 0.00 | 0.00 | 0.00 | 74 | 1012.3 |
| 20260507173603 | 69 | 44 | 2.0 | 6.0 | 0.00 | 0.00 | 0.00 | 73 | 1012.5 |
| 20260507173204 | 69 | 24 | 0.0 | 6.0 | 0.00 | 0.00 | 0.00 | 68 | 1012.3 |
| 20260507172804 | 70 | 24 | 2.0 | 4.0 | 0.00 | 0.00 | 0.00 | 66 | 1012.4 |
| 20260507172404 | 69 | 20 | 0.0 | 4.0 | 0.00 | 0.00 | 0.00 | 67 | 1012.4 |
| 20260507172004 | 69 | 7 | 1.0 | 7.0 | 0.00 | 0.00 | 0.00 | 67 | 1012.4 |
| 20260507171603 | 70 | 1 | 1.0 | 7.0 | 0.00 | 0.00 | 0.00 | 67 | 1012.5 |
| 20260507171204 | 70 | 9 | 2.0 | 7.0 | 0.00 | 0.00 | 0.00 | 66 | 1012.1 |
| 20260507170804 | 70 | 15 | 1.0 | 6.0 | 0.00 | 0.00 | 0.00 | 63 | 1012.1 |
| 20260507170404 | 71 | 23 | 3.0 | 6.0 | 0.00 | 0.00 | 0.00 | 63 | 1012.0 |
| 20260507170004 | 71 | 22 | 1.0 | 6.0 | 0.00 | 0.00 | 0.00 | 62 | 1012.1 |
| 20260507165604 | 71 | 18 | 0.0 | 4.0 | 0.00 | 0.00 | 0.00 | 62 | 1011.9 |
| 20260507165204 | 71 | 5 | 0.0 | 4.0 | 0.00 | 0.00 | 0.00 | 62 | 1012.0 |
| 20260507164803 | 71 | 354 | 1.0 | 4.0 | 0.00 | 0.00 | 0.00 | 62 | 1011.9 |
| 20260507164404 | 71 | 348 | 1.0 | 4.0 | 0.00 | 0.00 | 0.00 | 61 | 1012.1 |
| 20260507164005 | 71 | 335 | 1.0 | 4.0 | 0.00 | 0.00 | 0.00 | 59 | 1012.2 |
| 20260507163603 | 71 | 297 | 1.0 | 4.0 | 0.00 | 0.00 | 0.00 | 57 | 1012.1 |
| 20260507163205 | 71 | 271 | 0.0 | 4.0 | 0.00 | 0.00 | 0.00 | 56 | 1012.1 |
| 20260507163014 | 71 | 266 | 1.0 | 4.0 | 0.00 | 0.00 | 0.00 | 54 | 1012.0 |
| 20260507162404 | 71 | 226 | 2.0 | 4.0 | 0.00 | 0.00 | 0.00 | 53 | 1012.1 |
| 20260507162213 | 71 | 199 | 1.0 | 4.0 | 0.00 | 0.00 | 0.00 | 55 | 1012.3 |
| 20260507161603 | 71 | 164 | 0.0 | 4.0 | 0.00 | 0.00 | 0.00 | 55 | 1012.0 |
| 20260507161203 | 71 | 161 | 2.0 | 4.0 | 0.00 | 0.00 | 0.00 | 54 | 1012.0 |
| 20260507160803 | 71 | 187 | 1.0 | 6.0 | 0.00 | 0.00 | 0.00 | 55 | 1011.9 |
| 20260507160404 | 72 | 199 | 1.0 | 6.0 | 0.00 | 0.00 | 0.00 | 54 | 1011.8 |
| 20260507160003 | 73 | 214 | 2.0 | 6.0 | 0.00 | 0.00 | 0.00 | 50 | 1012.2 |
| 20260507155603 | 73 | 215 | 2.0 | 6.0 | 0.00 | 0.00 | 0.00 | 50 | 1012.0 |
| 20260507155204 | 72 | 207 | 1.0 | 6.0 | 0.00 | 0.00 | 0.00 | 50 | 1012.1 |
| 20260507154803 | 73 | 197 | 1.0 | 6.0 | 0.00 | 0.00 | 0.00 | 52 | 1011.9 |
| 20260507154617 | 73 | 194 | 2.0 | 7.0 | 0.00 | 0.00 | 0.00 | 51 | 1012.1 |
| 20260507154217 | 74 | 214 | 2.0 | 7.0 | 0.00 | 0.00 | 0.00 | 51 | 1012.0 |
| 20260507153603 | 73 | 198 | 4.0 | 8.0 | 0.00 | 0.00 | 0.00 | 50 | 1011.9 |
| 20260507153203 | 73 | 173 | 3.0 | 8.0 | 0.00 | 0.00 | 0.00 | 49 | 1011.7 |
| 20260507153015 | 73 | 162 | 4.0 | 8.0 | 0.00 | 0.00 | 0.00 | 49 | 1011.8 |
| 20260507152614 | 72 | 160 | 2.0 | 8.0 | 0.00 | 0.00 | 0.00 | 52 | 1011.8 |
| 20260507152003 | 72 | 192 | 2.0 | 8.0 | 0.00 | 0.00 | 0.00 | 52 | 1011.9 |
| 20260507151604 | 72 | 181 | 3.0 | 8.0 | 0.00 | 0.00 | 0.00 | 51 | 1012.0 |
| 20260507151204 | 72 | 167 | 1.0 | 8.0 | 0.00 | 0.00 | 0.00 | 53 | 1011.8 |
| 20260507150803 | 72 | 159 | 3.0 | 7.0 | 0.00 | 0.00 | 0.00 | 51 | 1011.9 |
| 20260507150403 | 72 | 178 | 2.0 | 4.0 | 0.00 | 0.00 | 0.00 | 54 | 1011.6 |
| 20260507150004 | 73 | 174 | 0.0 | 7.0 | 0.00 | 0.00 | 0.00 | 52 | 1011.9 |
| 20260507145604 | 75 | 187 | 2.0 | 7.0 | 0.00 | 0.00 | 0.00 | 51 | 1012.0 |
| 20260507145203 | 76 | 176 | 2.0 | 8.0 | 0.00 | 0.00 | 0.00 | 48 | 1012.0 |
| 20260507144804 | 76 | 210 | 2.0 | 8.0 | 0.00 | 0.00 | 0.00 | 49 | 1012.1 |
| 20260507144404 | 74 | 220 | 3.0 | 8.0 | 0.00 | 0.00 | 0.00 | 50 | 1012.0 |
| 20260507144218 | 75 | 237 | 4.0 | 8.0 | 0.00 | 0.00 | 0.00 | 49 | 1011.9 |
| 20260507143603 | 76 | 191 | 1.0 | 4.0 | 0.00 | 0.00 | 0.00 | 49 | 1011.8 |
| 20260507143203 | 73 | 200 | 2.0 | 4.0 | 0.00 | 0.00 | 0.00 | 49 | 1011.9 |
| 20260507142804 | 73 | 217 | 2.0 | 7.0 | 0.00 | 0.00 | 0.00 | 53 | 1011.9 |
| 20260507142403 | 75 | 228 | 2.0 | 7.0 | 0.00 | 0.00 | 0.00 | 53 | 1011.9 |
| 20260507142214 | 75 | 231 | 2.0 | 7.0 | 0.00 | 0.00 | 0.00 | 50 | 1012.2 |
| 20260507141814 | 74 | 246 | 1.0 | 4.0 | 0.00 | 0.00 | 0.00 | 50 | 1011.9 |